STARLINK-36032, 66594

Orbit data source: Space-Track

STARLINK-36032, 66594 is a payload satellite owned by SpaceX/Seattle (US) in LEO that was launched on Sat, 22 Nov 2025 UTC via an FALCON 9 launch vehicle from the Air Force Eastern Test Range (AFETR). Payload-class satellites include a variety of spacecraft equipped with specific instruments for various scientific and technological missions. These include communications satellites like Starlink; space stations such as the ISS; scientific satellites like the Hubble; Earth observation satellites from companies like Planet Labs, Umbra, and HawkEye 360; GPS; miniature CubeSats for education and research; and military/defense satellites.

Loading next visibility...
Identifier
66594, 2025-270G
Orbit
LEO
Country
Flag of USUS
Related business
Manufacturer
SpaceX/Seattle
Mission
Operational Commercial Communications
Bus & Motor
STARLINK V2MO, Unknown motor
Mass
575 kg wet, ~530 kg dry
Launch date (UTC)
2025-11-22 (7 months ago)
Launch vehicle
FALCON 9
Launch site
Air Force Eastern Test Range (AFETR)
Object type
Payload
Rocket body
Debris
Shape & HBR
Box + 2 Pan, 17.7 m
Radar Cross Section
36.964 m², Large (>1 m²)

Expand to show TLE details & history
Last TLE update: 12 hours ago

TLE from 12 hours ago
0 STARLINK-36032
1 66594U 25270G   26171.34651537  .00010452  00000-0  38870-3 0  9998
2 66594  42.9993 196.6223 0001389 270.0934  89.9758 15.27588935 33211
Epoch: 2026-06-20T08:18Z
TLE epoch observation values (Epoch: 2026-06-20T08:18:58.927Z)
Latitude
-0.00007°
Longitude
163.31424°
Altitude
482.797 km
Speed
7.626 km/s
True Right ascension
13h 06m 29s
True Declination
0° 00' 00"
Sunlit
Object was in daylight at epoch
Visualization orbit readout
Latitude
Unknown
Longitude
Unknown
Altitude
Unknown
Speed
Unknown
Apparent Right ascension
Unknown
Apparent Declination
Unknown
Sunlit
N/A
Visualization observer readout
Local Sidereal Time
07:18:15
Azimuth
Unknown
Elevation
Unknown
Doppler factor
Unknown
Orbital elements
Apogee altitude
485.921 km
Perigee altitude
484.014 km
Semi-major axis
6,863.105 km
Eccentricity
0.00014
Inclination
42.9993°
RAAN
196.6223°
Arg. of periapsis
270.0934°
True anomaly
89.99172°
Mean anomaly
89.9758°
Eccentric anomaly
89.98376°
Mean motion
3.81735 °/min
Orbital period
94.31 mins
BSTAR
0.0003887
Loading maneuver chart data...
Computing Atmospheric mass density...
Loading historical data...
Loading historical data...
Loading historical data...
Loading historical data...
Loading historical data...
Loading historical data...
Loading historical data...

Documentation

Showing up to 5 results
|